Weather History for Ithaca, NY

Change the Weather History Date:

Saturday, November 12, 2011

  Actual Average Record
Temperature  
Mean Temperature 43 °F -  
Max Temperature 54 °F 44 °F 69 °F (1964)
Min Temperature 32 °F 32 °F 16 °F (1976)
Degree Days  
Heating Degree Days 22    
Moisture  
Dew Point 28 °F    
Average Humidity 59    
Maximum Humidity 79    
Minimum Humidity 40    
Precipitation  
Precipitation 0.00 in - - ()
Sea Level Pressure  
Sea Level Pressure 29.98 in    
Wind  
Wind Speed 9 mph (South)    
Max Wind Speed 14 mph    
Max Gust Speed 20 mph    
Visibility 10 miles    
Events      
Averages and records for this station are not official NWS values.
T = Trace of Precipitation, MM = Missing Value Source: NWS Daily Summary

Daily Weather History Graph

Daily Weather History Graph

Search for Another Location

Airport:

Trip Planner

Search our weather history database for the weather conditions in past years. The results will help you decide how hot, cold, wet, or windy it might be!

Date:

Astronomy

Nov. 12, 2011 Rise Set
Actual Time 6:52 AM EST 4:46 PM EST
Civil Twilight 6:22 AM EST 5:16 PM EST
Nautical Twilight 5:48 AM EST 5:50 PM EST
Astronomical Twilight 5:15 AM EST 6:23 PM EST
Moon 5:58 PM EST (11/12) 8:35 AM EST (11/12)
Length of Visible Light 10h 53m
Length of Day
9h 53m
Full, 97% of the Moon is Illuminated
Nov 12
Full
Nov 18
Last Quarter
Nov 25
New
Dec 2
First Quarter
Dec 10
Full

Hourly Weather History & Observations

Time (EST) Temp. Windchill Dew Point Humidity Pressure Visibility Wind Dir Wind Speed Gust Speed Precip Events Conditions
12:56 AM 34.9 °F 27.7 °F 29.1 °F 79% 29.98 in 10.0 mi SW 9.2 mph - N/A   Overcast
1:56 AM 36.0 °F 30.3 °F 29.1 °F 76% 29.98 in 10.0 mi SSW 6.9 mph - N/A   Overcast
2:56 AM 36.0 °F 28.5 °F 27.1 °F 70% 29.99 in 10.0 mi SW 10.4 mph - N/A   Overcast
3:56 AM 34.0 °F 28.8 °F 25.2 °F 70% 29.98 in 10.0 mi SSW 5.8 mph - N/A   Clear
4:56 AM 32.9 °F 26.7 °F 24.1 °F 70% 29.97 in 10.0 mi South 6.9 mph - N/A   Mostly Cloudy
5:56 AM 32.9 °F 24.7 °F 24.1 °F 70% 29.97 in 10.0 mi SSE 10.4 mph - N/A   Mostly Cloudy
6:28 AM 32.0 °F 23.0 °F 24.8 °F 75% 29.93 in 10.0 mi SE 11.5 mph - N/A   Mostly Cloudy
6:56 AM 32.0 °F 23.6 °F 24.1 °F 73% 29.97 in 10.0 mi SSE 10.4 mph - N/A   Scattered Clouds
8:56 AM 37.9 °F 30.9 °F 26.1 °F 62% 29.97 in 10.0 mi SSE 10.4 mph - N/A   Clear
9:56 AM 41.9 °F 35.9 °F 26.1 °F 53% 29.98 in 10.0 mi South 10.4 mph - N/A   Clear
10:56 AM 45.9 °F 40.0 °F 27.1 °F 48% 29.96 in 10.0 mi South 12.7 mph - N/A   Clear
11:56 AM 50.0 °F - 28.0 °F 43% 29.94 in 10.0 mi SSW 10.4 mph - N/A   Clear
12:56 PM 52.0 °F - 29.1 °F 41% 29.94 in 10.0 mi SSW 13.8 mph - N/A   Clear
1:56 PM 52.9 °F - 30.0 °F 42% 29.94 in 10.0 mi SSW 11.5 mph 19.6 mph N/A   Clear
2:56 PM 54.9 °F - 31.1 °F 40% 29.95 in 10.0 mi SSW 11.5 mph - N/A   Clear
3:56 PM 54.0 °F - 31.1 °F 42% 29.97 in 10.0 mi SSW 9.2 mph - N/A   Clear
4:56 PM 50.0 °F - 30.0 °F 46% 29.99 in 10.0 mi SSW 9.2 mph - N/A   Clear
6:56 PM 45.0 °F 41.8 °F 31.1 °F 58% 30.03 in 10.0 mi SSE 5.8 mph - N/A   Clear
7:56 PM 45.9 °F 42.3 °F 30.0 °F 54% 30.03 in 10.0 mi SSE 6.9 mph - N/A   Clear
8:56 PM 45.0 °F 41.2 °F 31.1 °F 58% 30.03 in 10.0 mi SSE 6.9 mph - N/A   Clear
10:56 PM 43.9 °F 39.3 °F 31.1 °F 61% 30.04 in 10.0 mi SSE 8.1 mph - N/A   Clear
11:56 PM 43.9 °F 39.3 °F 31.1 °F 61% 30.04 in 10.0 mi SSE 8.1 mph - N/A   Clear